Tracking 19636 objects as of 25-May-2019
HD Live streaming from Space Station
objects crossing your sky now

GALAXY 26 (TELSTAR 6)

Track GALAXY 26 (TELSTAR 6) now!
GALAXY 26 (TELSTAR 6) is classified as:


NORAD ID: 25626
Int'l Code: 1999-005A
Perigee: 36,139.0 km
Apogee: 36,171.8 km
Inclination: 6.2 °
Period: 1,454.6 minutes
Semi major axis: 42526 km
RCS: 36.2015 m2 (large)
Launch date: February 15, 1999
Source: United States (US)
Launch site: TYURATAM MISSILE AND SPACE COMPLEX (TTMTR)

24 C-band, 28 Ku-band; U.S., southern Canada, Mexico, Caribbean.
aabbcc
Your satellite tracking list
Your tracking list is empty




NASA's NSSDC Master Catalog

Two Line Element Set (TLE):
1 25626U 99005A   19144.88256667  .00000040  00000-0  00000+0 0  9994
2 25626   6.1978  68.0214 0003864 350.2326  32.2511  0.98995342 74034
Source of the keplerian elements: AFSPC